DLH16PY EKCH-EDDL

Flight info

Callsign DLH16PY
Flight time 1h 20m
Altitude 38000
Route NEXEN T503 GIMRU DCT MICOS DCT KEGAB DCT DENOL T851 HALME HALME1A
Aircraft A20N/M-SDE2E3FGHIRWXY/LB1

Departure

Time 2026-05-04 19:15
Airport Copenhagen Kastrup Airport (EKCH)

Arrival

Time 2026-05-04 20:36
Airport Düsseldorf Airport (EDDL)
Time Latitude Longitude Altitude Speed Heading
2026-05-04 18:25 55.62523 12.65762 17 ft 0 kts
2026-05-04 19:00 55.62510 12.65762 17 ft 2 kts 360°
2026-05-04 19:00 55.62495 12.65762 17 ft 2 kts
2026-05-04 19:01 55.62479 12.65762 17 ft 2 kts 360°
2026-05-04 19:01 55.62465 12.65762 17 ft 2 kts
2026-05-04 19:01 55.62463 12.65762 17 ft 0 kts
2026-05-04 19:02 55.62464 12.65761 17 ft 0 kts 346°
2026-05-04 19:02 55.62457 12.65739 17 ft 5 kts 224°
2026-05-04 19:03 55.62445 12.65703 17 ft 0 kts 259°
2026-05-04 19:03 55.62445 12.65702 17 ft 0 kts 260°
2026-05-04 19:04 55.62445 12.65698 17 ft 1 kts 261°
2026-05-04 19:05 55.62443 12.65654 17 ft 5 kts 268°
2026-05-04 19:05 55.62442 12.65563 18 ft 9 kts 269°
2026-05-04 19:05 55.62440 12.65434 18 ft 9 kts 266°
2026-05-04 19:05 55.62427 12.65341 19 ft 6 kts 221°
2026-05-04 19:06 55.62399 12.65328 19 ft 0 kts 179°
2026-05-04 19:06 55.62373 12.65330 19 ft 7 kts 178°
2026-05-04 19:07 55.62310 12.65318 19 ft 6 kts 210°
2026-05-04 19:07 55.62292 12.65255 19 ft 8 kts 263°
2026-05-04 19:07 55.62282 12.65159 20 ft 8 kts 245°
2026-05-04 19:07 55.62281 12.65060 20 ft 9 kts 300°
2026-05-04 19:08 55.62320 12.64957 20 ft 11 kts 304°
2026-05-04 19:08 55.62346 12.64883 21 ft 5 kts 300°
2026-05-04 19:08 55.62348 12.64800 21 ft 8 kts 249°
2026-05-04 19:08 55.62320 12.64694 21 ft 10 kts 244°
2026-05-04 19:09 55.62299 12.64610 21 ft 0 kts 247°
2026-05-04 19:09 55.62298 12.64609 21 ft 0 kts 247°
2026-05-04 19:10 55.62295 12.64595 21 ft 2 kts 246°
2026-05-04 19:10 55.62277 12.64521 21 ft 8 kts 250°
2026-05-04 19:10 55.62259 12.64424 21 ft 7 kts 252°
2026-05-04 19:10 55.62234 12.64372 21 ft 7 kts 210°
2026-05-04 19:11 55.62166 12.64318 21 ft 13 kts 204°
2026-05-04 19:11 55.62095 12.64259 22 ft 4 kts 206°
2026-05-04 19:11 55.62066 12.64234 22 ft 5 kts 205°
2026-05-04 19:11 55.62017 12.64193 22 ft 13 kts 206°
2026-05-04 19:12 55.61921 12.64107 22 ft 16 kts 207°
2026-05-04 19:12 55.61758 12.63936 23 ft 9 kts 187°
2026-05-04 19:12 55.61691 12.63943 23 ft 3 kts 176°
2026-05-04 19:13 55.61690 12.63943 23 ft 0 kts 176°
2026-05-04 19:14 55.61682 12.63944 23 ft 3 kts 178°
2026-05-04 19:14 55.61626 12.63951 23 ft 13 kts 173°
2026-05-04 19:14 55.61548 12.63949 23 ft 9 kts 210°
2026-05-04 19:14 55.61473 12.63833 23 ft 26 kts 221°
2026-05-04 19:15 55.61130 12.63305 23 ft 103 kts 221°
2026-05-04 19:15 55.60413 12.62209 22 ft 165 kts 224°
2026-05-04 19:15 55.59528 12.60849 617 ft 170 kts 224°
2026-05-04 19:15 55.58656 12.59518 1375 ft 167 kts 226°
2026-05-04 19:16 55.57787 12.58173 2029 ft 173 kts 226°
2026-05-04 19:16 55.56846 12.56701 2532 ft 189 kts 225°
2026-05-04 19:16 55.55749 12.55220 3035 ft 208 kts 218°
2026-05-04 19:16 55.54515 12.53758 3506 ft 227 kts 218°
2026-05-04 19:17 55.53148 12.52096 4032 ft 248 kts 218°
2026-05-04 19:17 55.51704 12.50342 4708 ft 261 kts 218°
2026-05-04 19:17 55.50203 12.48522 5642 ft 264 kts 218°
2026-05-04 19:17 55.48696 12.46692 6605 ft 266 kts 219°
2026-05-04 19:18 55.47198 12.44870 7544 ft 267 kts 219°
2026-05-04 19:18 55.45667 12.43003 8496 ft 270 kts 219°
2026-05-04 19:18 55.44146 12.41149 9392 ft 272 kts 219°
2026-05-04 19:18 55.42591 12.39252 10265 ft 274 kts 219°
2026-05-04 19:19 55.41018 12.37331 10848 ft 287 kts 219°
2026-05-04 19:19 55.39325 12.35261 11261 ft 305 kts 219°
2026-05-04 19:19 55.37565 12.33108 11710 ft 320 kts 218°
2026-05-04 19:19 55.35719 12.30854 12444 ft 325 kts 218°
2026-05-04 19:20 55.33879 12.28618 13225 ft 328 kts 218°
2026-05-04 19:20 55.31994 12.26330 13991 ft 331 kts 218°
2026-05-04 19:20 55.30117 12.24059 14718 ft 335 kts 218°
2026-05-04 19:20 55.28188 12.21726 15450 ft 338 kts 218°
2026-05-04 19:21 55.26268 12.19409 16144 ft 342 kts 218°
2026-05-04 19:21 55.24302 12.17040 16843 ft 345 kts 218°
2026-05-04 19:21 55.22318 12.14650 17517 ft 348 kts 218°
2026-05-04 19:21 55.20343 12.12272 18164 ft 351 kts 218°
2026-05-04 19:22 55.18350 12.09769 18792 ft 354 kts 219°
2026-05-04 19:22 55.16388 12.07244 19413 ft 356 kts 220°
2026-05-04 19:22 55.14379 12.04656 20024 ft 360 kts 220°
2026-05-04 19:22 55.12383 12.02094 20616 ft 363 kts 220°
2026-05-04 19:23 55.10334 11.99471 21221 ft 365 kts 220°
2026-05-04 19:23 55.08301 11.96876 21810 ft 368 kts 220°
2026-05-04 19:23 55.06224 11.94230 22411 ft 370 kts 220°
2026-05-04 19:23 55.04165 11.91610 22987 ft 372 kts 220°
2026-05-04 19:24 55.02056 11.88928 23503 ft 376 kts 220°
2026-05-04 19:24 54.99956 11.86263 24015 ft 380 kts 220°
2026-05-04 19:24 54.97807 11.83541 24560 ft 382 kts 220°
2026-05-04 19:24 54.95653 11.80817 25102 ft 384 kts 220°
2026-05-04 19:25 54.93514 11.78118 25640 ft 386 kts 220°
2026-05-04 19:25 54.91330 11.75362 26167 ft 388 kts 220°
2026-05-04 19:25 54.89162 11.72635 26659 ft 389 kts 220°
2026-05-04 19:25 54.86948 11.69871 27162 ft 391 kts 220°
2026-05-04 19:26 54.84759 11.67138 27640 ft 392 kts 221°
2026-05-04 19:26 54.82532 11.64353 27910 ft 394 kts 221°
2026-05-04 19:26 54.80334 11.61599 27936 ft 396 kts 221°
2026-05-04 19:26 54.78080 11.58781 28311 ft 399 kts 220°
2026-05-04 19:27 54.75863 11.56016 28840 ft 397 kts 221°
2026-05-04 19:27 54.73614 11.53215 29256 ft 398 kts 221°
2026-05-04 19:27 54.71390 11.50443 29598 ft 400 kts 221°
2026-05-04 19:27 54.69123 11.47621 29943 ft 401 kts 221°
2026-05-04 19:28 54.66882 11.44836 30258 ft 402 kts 220°
2026-05-04 19:28 54.64599 11.41999 30558 ft 403 kts 221°
2026-05-04 19:28 54.62342 11.39202 30826 ft 405 kts 221°
2026-05-04 19:28 54.60043 11.36358 31062 ft 406 kts 221°
2026-05-04 19:29 54.57734 11.33504 31297 ft 408 kts 220°
2026-05-04 19:29 54.55451 11.30678 31587 ft 408 kts 220°
2026-05-04 19:29 54.53165 11.27876 31881 ft 408 kts 220°
2026-05-04 19:29 54.50840 11.25039 32157 ft 409 kts 219°
2026-05-04 19:30 54.48546 11.22247 32420 ft 409 kts 219°
2026-05-04 19:30 54.46213 11.19414 32686 ft 410 kts 219°
2026-05-04 19:30 54.43909 11.16618 32943 ft 410 kts 219°
2026-05-04 19:30 54.41571 11.13789 33187 ft 411 kts 219°
2026-05-04 19:31 54.39232 11.10960 33445 ft 411 kts 219°
2026-05-04 19:31 54.36924 11.08172 33723 ft 410 kts 219°
2026-05-04 19:31 54.34584 11.05353 34018 ft 410 kts 220°
2026-05-04 19:31 54.32276 11.02575 34336 ft 408 kts 220°
2026-05-04 19:32 54.29966 10.99798 34644 ft 407 kts 219°
2026-05-04 19:32 54.27631 10.97024 34915 ft 406 kts 219°
2026-05-04 19:32 54.25330 10.94301 35131 ft 405 kts 219°
2026-05-04 19:32 54.23031 10.91585 35340 ft 405 kts 219°
2026-05-04 19:33 54.20718 10.88852 35532 ft 404 kts 219°
2026-05-04 19:33 54.18425 10.86152 35712 ft 405 kts 219°
2026-05-04 19:33 54.16101 10.83417 35879 ft 404 kts 219°
2026-05-04 19:33 54.13802 10.80716 36033 ft 404 kts 219°
2026-05-04 19:34 54.11515 10.78031 36182 ft 404 kts 219°
2026-05-04 19:34 54.09182 10.75298 36312 ft 404 kts 219°
2026-05-04 19:34 54.06883 10.72607 36441 ft 405 kts 219°
2026-05-04 19:34 54.04587 10.69922 36581 ft 406 kts 218°
2026-05-04 19:35 54.02258 10.67204 36738 ft 407 kts 218°
2026-05-04 19:35 53.99912 10.64469 36900 ft 407 kts 218°
2026-05-04 19:35 53.97610 10.61790 37067 ft 408 kts 218°
2026-05-04 19:35 53.95251 10.59064 37204 ft 409 kts 217°
2026-05-04 19:36 53.92862 10.56532 37367 ft 410 kts 215°
2026-05-04 19:36 53.90402 10.54027 37543 ft 410 kts 214°
2026-05-04 19:36 53.87986 10.51586 37695 ft 411 kts 214°
2026-05-04 19:36 53.85529 10.49112 37845 ft 411 kts 214°
2026-05-04 19:37 53.83059 10.46617 37944 ft 413 kts 214°
2026-05-04 19:37 53.78170 10.41666 37950 ft 413 kts 214°
2026-05-04 19:38 53.73240 10.36669 37948 ft 413 kts 214°
2026-05-04 19:38 53.68337 10.31692 37955 ft 413 kts 214°
2026-05-04 19:39 53.63464 10.26741 37964 ft 413 kts 214°
2026-05-04 19:39 53.58534 10.21758 37955 ft 413 kts 214°
2026-05-04 19:40 53.53636 10.16828 37969 ft 412 kts 214°
2026-05-04 19:40 53.48743 10.11918 37966 ft 412 kts 214°
2026-05-04 19:41 53.43815 10.06990 37968 ft 413 kts 214°
2026-05-04 19:41 53.38911 10.02094 37962 ft 413 kts 214°
2026-05-04 19:42 53.33996 9.97207 37968 ft 413 kts 214°
2026-05-04 19:42 53.29053 9.92305 37949 ft 413 kts 214°
2026-05-04 19:43 53.24142 9.87442 37958 ft 413 kts 214°
2026-05-04 19:43 53.19229 9.82593 37951 ft 413 kts 213°
2026-05-04 19:44 53.14307 9.77749 37959 ft 413 kts 214°
2026-05-04 19:44 53.09366 9.72900 37939 ft 413 kts 214°
2026-05-04 19:45 53.04458 9.68095 37940 ft 413 kts 213°
2026-05-04 19:45 52.99530 9.63285 37935 ft 413 kts 213°
2026-05-04 19:46 52.94575 9.58459 37942 ft 413 kts 213°
2026-05-04 19:46 52.89650 9.53679 37937 ft 413 kts 213°
2026-05-04 19:47 52.84714 9.48927 37898 ft 410 kts 213°
2026-05-04 19:47 52.82254 9.46563 37580 ft 406 kts 213°
2026-05-04 19:47 52.79847 9.44250 37051 ft 404 kts 213°
2026-05-04 19:47 52.77433 9.41928 36628 ft 399 kts 214°
2026-05-04 19:48 52.75048 9.39637 36323 ft 395 kts 214°
2026-05-04 19:48 52.72688 9.37370 35988 ft 393 kts 214°
2026-05-04 19:48 52.70349 9.35124 35658 ft 391 kts 214°
2026-05-04 19:48 52.68026 9.32888 35325 ft 390 kts 213°
2026-05-04 19:49 52.65689 9.30635 34987 ft 388 kts 213°
2026-05-04 19:49 52.63359 9.28396 34579 ft 386 kts 213°
2026-05-04 19:49 52.61055 9.26186 34152 ft 387 kts 213°
2026-05-04 19:49 52.58741 9.23967 33726 ft 388 kts 213°
2026-05-04 19:50 52.56390 9.21720 33293 ft 390 kts 213°
2026-05-04 19:50 52.54048 9.19488 32860 ft 392 kts 213°
2026-05-04 19:50 52.51711 9.17264 32437 ft 393 kts 213°
2026-05-04 19:50 52.49333 9.15002 32004 ft 394 kts 213°
2026-05-04 19:51 52.46988 9.12779 31577 ft 396 kts 213°
2026-05-04 19:51 52.44591 9.10507 31147 ft 397 kts 212°
2026-05-04 19:51 52.42209 9.08252 30720 ft 398 kts 212°
2026-05-04 19:51 52.39817 9.05994 30281 ft 400 kts 212°
2026-05-04 19:52 52.37412 9.03720 29843 ft 403 kts 212°
2026-05-04 19:52 52.34981 9.01430 29400 ft 404 kts 211°
2026-05-04 19:52 52.32566 8.99157 28962 ft 403 kts 211°
2026-05-04 19:52 52.30156 8.96894 28526 ft 401 kts 211°
2026-05-04 19:53 52.27757 8.94645 28089 ft 399 kts 211°
2026-05-04 19:53 52.25372 8.92411 27653 ft 397 kts 211°
2026-05-04 19:53 52.22965 8.90157 27209 ft 396 kts 211°
2026-05-04 19:53 52.20608 8.87953 26776 ft 394 kts 211°
2026-05-04 19:54 52.18234 8.85734 26341 ft 392 kts 211°
2026-05-04 19:54 52.15896 8.83550 25908 ft 391 kts 211°
2026-05-04 19:54 52.13555 8.81371 25475 ft 389 kts 211°
2026-05-04 19:54 52.11201 8.79180 25061 ft 387 kts 211°
2026-05-04 19:55 52.08889 8.77030 24968 ft 386 kts 211°
2026-05-04 19:55 52.06569 8.74877 24937 ft 387 kts 211°
2026-05-04 19:55 52.04419 8.72304 24625 ft 385 kts 227°
2026-05-04 19:55 52.02905 8.68757 24361 ft 386 kts 243°
2026-05-04 19:56 52.01960 8.64621 24098 ft 387 kts 250°
2026-05-04 19:56 52.01117 8.60504 23830 ft 386 kts 249°
2026-05-04 19:56 52.00487 8.57439 23625 ft 385 kts 250°
2026-05-04 19:56 52.00035 8.55266 23490 ft 384 kts 250°
2026-05-04 19:57 51.99176 8.51151 23230 ft 384 kts 250°
2026-05-04 19:57 51.98326 8.47107 22976 ft 383 kts 249°
2026-05-04 19:57 51.97461 8.43014 22715 ft 382 kts 249°
2026-05-04 19:57 51.96608 8.38993 22461 ft 381 kts 249°
2026-05-04 19:58 51.95744 8.34930 22207 ft 380 kts 249°
2026-05-04 19:58 51.94888 8.30908 21952 ft 379 kts 249°
2026-05-04 19:58 51.94029 8.26880 21696 ft 378 kts 249°
2026-05-04 19:58 51.93173 8.22868 21444 ft 378 kts 249°
2026-05-04 19:59 51.92310 8.18842 21193 ft 377 kts 249°
2026-05-04 19:59 51.91463 8.14897 20936 ft 376 kts 249°
2026-05-04 19:59 51.90601 8.10889 20683 ft 375 kts 249°
2026-05-04 19:59 51.89745 8.06927 20436 ft 374 kts 249°
2026-05-04 20:00 51.88875 8.02962 20185 ft 374 kts 249°
2026-05-04 20:00 51.88014 7.99039 19932 ft 372 kts 249°
2026-05-04 20:00 51.87146 7.95082 19675 ft 372 kts 249°
2026-05-04 20:00 51.86294 7.91190 19426 ft 371 kts 249°
2026-05-04 20:01 51.85432 7.87250 19170 ft 370 kts 249°
2026-05-04 20:01 51.84583 7.83376 18923 ft 370 kts 249°
2026-05-04 20:01 51.83723 7.79451 18670 ft 369 kts 249°
2026-05-04 20:01 51.82866 7.75543 18414 ft 368 kts 249°
2026-05-04 20:02 51.82023 7.71701 18165 ft 367 kts 249°
2026-05-04 20:02 51.81166 7.67805 17913 ft 366 kts 249°
2026-05-04 20:02 51.80322 7.63977 17668 ft 365 kts 249°
2026-05-04 20:02 51.79467 7.60107 17412 ft 364 kts 249°
2026-05-04 20:03 51.78628 7.56309 17166 ft 362 kts 249°
2026-05-04 20:03 51.77778 7.52474 16916 ft 361 kts 249°
2026-05-04 20:03 51.76942 7.48708 16670 ft 360 kts 249°
2026-05-04 20:03 51.76096 7.44896 16417 ft 359 kts 249°
2026-05-04 20:04 51.75264 7.41164 16183 ft 358 kts 249°
2026-05-04 20:04 51.74420 7.37376 15933 ft 356 kts 249°
2026-05-04 20:04 51.73599 7.33698 15621 ft 349 kts 249°
2026-05-04 20:04 51.72790 7.30072 15292 ft 342 kts 248°
2026-05-04 20:05 51.71990 7.26502 14965 ft 335 kts 249°
2026-05-04 20:05 51.71202 7.23000 14638 ft 328 kts 248°
2026-05-04 20:05 51.70438 7.19610 14326 ft 322 kts 248°
2026-05-04 20:05 51.69654 7.16243 14033 ft 315 kts 247°
2026-05-04 20:06 51.68748 7.13156 13964 ft 300 kts 238°
2026-05-04 20:06 51.67612 7.10434 13955 ft 284 kts 232°
2026-05-04 20:06 51.66469 7.07986 13950 ft 269 kts 231°
2026-05-04 20:06 51.65349 7.05624 13954 ft 263 kts 231°
2026-05-04 20:07 51.64236 7.03277 13943 ft 261 kts 231°
2026-05-04 20:07 51.63155 7.00987 13678 ft 259 kts 231°
2026-05-04 20:07 51.62057 6.98657 13293 ft 261 kts 231°
2026-05-04 20:07 51.60976 6.96361 12946 ft 260 kts 231°
2026-05-04 20:08 51.59877 6.94032 12606 ft 259 kts 231°
2026-05-04 20:08 51.58779 6.91787 12292 ft 257 kts 224°
2026-05-04 20:08 51.57280 6.90304 11957 ft 252 kts 194°
2026-05-04 20:08 51.55579 6.90175 11683 ft 248 kts 168°
2026-05-04 20:09 51.53999 6.91287 11351 ft 249 kts 146°
2026-05-04 20:09 51.52633 6.92953 11015 ft 249 kts 145°
2026-05-04 20:09 51.51273 6.94706 10663 ft 251 kts 136°
2026-05-04 20:09 51.50415 6.97088 10381 ft 254 kts 105°
2026-05-04 20:10 51.50398 6.99913 10073 ft 256 kts 76°
2026-05-04 20:10 51.51212 7.02467 9753 ft 258 kts 54°
2026-05-04 20:10 51.52308 7.04711 9402 ft 260 kts 52°
2026-05-04 20:10 51.53431 7.07008 9078 ft 260 kts 54°
2026-05-04 20:11 51.54519 7.09271 8797 ft 258 kts 54°
2026-05-04 20:11 51.55604 7.11562 8486 ft 256 kts 54°
2026-05-04 20:11 51.56666 7.13822 8172 ft 256 kts 54°
2026-05-04 20:11 51.57704 7.16136 7834 ft 255 kts 63°
2026-05-04 20:12 51.58190 7.18883 7222 ft 262 kts 93°
2026-05-04 20:12 51.57759 7.21603 6831 ft 248 kts 124°
2026-05-04 20:12 51.56580 7.23475 6566 ft 234 kts 155°
2026-05-04 20:12 51.55056 7.24008 6304 ft 226 kts 187°
2026-05-04 20:13 51.53545 7.23397 5991 ft 225 kts 199°
2026-05-04 20:13 51.52071 7.22478 5603 ft 228 kts 202°
2026-05-04 20:13 51.50617 7.21513 5276 ft 228 kts 203°
2026-05-04 20:13 51.49187 7.20404 4967 ft 226 kts 213°
2026-05-04 20:14 51.48148 7.18595 4624 ft 225 kts 243°
2026-05-04 20:14 51.47529 7.16295 4327 ft 223 kts 244°
2026-05-04 20:14 51.46811 7.14120 3972 ft 223 kts 237°
2026-05-04 20:14 51.45966 7.12031 3657 ft 222 kts 236°
2026-05-04 20:15 51.45103 7.10014 3490 ft 222 kts 234°
2026-05-04 20:15 51.44195 7.07998 3416 ft 222 kts 233°
2026-05-04 20:15 51.43267 7.06009 3337 ft 222 kts 232°
2026-05-04 20:15 51.42348 7.04078 3256 ft 216 kts 232°
2026-05-04 20:16 51.41446 7.02201 3116 ft 208 kts 232°
2026-05-04 20:16 51.40585 7.00424 3025 ft 200 kts 232°
2026-05-04 20:16 51.39766 6.98704 2984 ft 186 kts 231°
2026-05-04 20:16 51.39019 6.97146 2964 ft 171 kts 231°
2026-05-04 20:17 51.38294 6.95640 2861 ft 170 kts 231°
2026-05-04 20:17 51.37582 6.94159 2638 ft 168 kts 231°
2026-05-04 20:17 51.36865 6.92665 2419 ft 168 kts 231°
2026-05-04 20:17 51.36162 6.91197 2203 ft 168 kts 231°
2026-05-04 20:18 51.35456 6.89719 2074 ft 167 kts 231°
2026-05-04 20:18 51.34744 6.88232 1819 ft 168 kts 231°
2026-05-04 20:18 51.34044 6.86766 1572 ft 167 kts 231°
2026-05-04 20:18 51.33335 6.85282 1358 ft 168 kts 231°
2026-05-04 20:19 51.32627 6.83799 1118 ft 167 kts 231°
2026-05-04 20:19 51.31931 6.82341 893 ft 167 kts 231°
2026-05-04 20:19 51.31224 6.80853 687 ft 167 kts 232°
2026-05-04 20:19 51.30527 6.79363 501 ft 167 kts 231°
2026-05-04 20:20 51.29824 6.77909 235 ft 167 kts 231°
2026-05-04 20:20 51.29094 6.76389 495 ft 179 kts 232°
2026-05-04 20:20 51.28351 6.74843 1375 ft 175 kts 231°
2026-05-04 20:20 51.27708 6.73283 2233 ft 176 kts 247°
2026-05-04 20:21 51.27627 6.71150 2348 ft 212 kts 281°
2026-05-04 20:21 51.28219 6.68790 2400 ft 253 kts 293°
2026-05-04 20:21 51.29851 6.63656 2906 ft 264 kts 305°
2026-05-04 20:22 51.31275 6.61795 3145 ft 267 kts 336°
2026-05-04 20:22 51.33070 6.61204 3390 ft 268 kts 358°
2026-05-04 20:22 51.34956 6.61246 3644 ft 271 kts
2026-05-04 20:22 51.36844 6.61405 3892 ft 272 kts
2026-05-04 20:23 51.38718 6.61581 3971 ft 272 kts
2026-05-04 20:23 51.40609 6.61836 3976 ft 274 kts 12°
2026-05-04 20:23 51.42361 6.63114 3973 ft 288 kts 40°
2026-05-04 20:23 51.43646 6.65577 4013 ft 291 kts 61°
2026-05-04 20:24 51.44552 6.68541 4449 ft 300 kts 74°
2026-05-04 20:24 51.44968 6.71732 4849 ft 295 kts 84°
2026-05-04 20:24 51.45291 6.74985 4972 ft 295 kts 81°
2026-05-04 20:24 51.45755 6.78173 4968 ft 287 kts 75°
2026-05-04 20:25 51.46325 6.81123 4890 ft 275 kts 73°
2026-05-04 20:25 51.46920 6.84028 4562 ft 272 kts 72°
2026-05-04 20:25 51.47502 6.86877 4242 ft 269 kts 73°
2026-05-04 20:25 51.48076 6.89741 4107 ft 270 kts 73°
2026-05-04 20:26 51.48644 6.92580 4031 ft 270 kts 74°
2026-05-04 20:26 51.49219 6.95470 3998 ft 268 kts 73°
2026-05-04 20:26 51.49501 6.98283 3975 ft 250 kts 96°
2026-05-04 20:26 51.49337 7.00986 3979 ft 238 kts 95°
2026-05-04 20:27 51.49257 7.03645 3990 ft 238 kts 93°
2026-05-04 20:27 51.49207 7.06278 3996 ft 239 kts 93°
2026-05-04 20:27 51.49159 7.08954 3996 ft 238 kts 94°
2026-05-04 20:27 51.48999 7.11509 3978 ft 225 kts 107°
2026-05-04 20:28 51.48275 7.13572 3962 ft 204 kts 143°
2026-05-04 20:28 51.47072 7.14426 3947 ft 179 kts 182°
2026-05-04 20:28 51.45966 7.13959 3992 ft 160 kts 207°
2026-05-04 20:28 51.44967 7.13343 4048 ft 145 kts 194°
2026-05-04 20:29 51.44008 7.13060 4001 ft 140 kts 195°
2026-05-04 20:29 51.43238 7.12213 3929 ft 138 kts 251°
2026-05-04 20:29 51.43389 7.10740 3771 ft 143 kts 286°
2026-05-04 20:29 51.43391 7.09189 3687 ft 140 kts 253°
2026-05-04 20:30 51.43142 7.07677 3705 ft 140 kts 250°
2026-05-04 20:30 51.42809 7.06231 3711 ft 139 kts 244°
2026-05-04 20:30 51.42363 7.04849 3713 ft 139 kts 237°
2026-05-04 20:30 51.41838 7.03503 3742 ft 147 kts 236°
2026-05-04 20:31 51.41293 7.02163 3722 ft 138 kts 234°
2026-05-04 20:31 51.40753 7.00908 3675 ft 138 kts 233°
2026-05-04 20:31 51.40192 6.99656 3495 ft 138 kts 233°
2026-05-04 20:31 51.39621 6.98417 3309 ft 139 kts 232°
2026-05-04 20:32 51.39047 6.97196 3120 ft 138 kts 230°
2026-05-04 20:32 51.38461 6.95963 2943 ft 139 kts 232°
2026-05-04 20:32 51.37883 6.94758 2759 ft 136 kts 231°
2026-05-04 20:32 51.37304 6.93547 2579 ft 137 kts 231°
2026-05-04 20:33 51.36724 6.92347 2390 ft 137 kts 231°
2026-05-04 20:33 51.36136 6.91126 2215 ft 140 kts 231°
2026-05-04 20:33 51.35501 6.89806 2047 ft 155 kts 230°
2026-05-04 20:33 51.34844 6.88436 1824 ft 157 kts 231°
2026-05-04 20:34 51.34176 6.87038 1604 ft 157 kts 231°
2026-05-04 20:34 51.33526 6.85656 1411 ft 156 kts 232°
2026-05-04 20:34 51.32880 6.84256 1223 ft 156 kts 232°
2026-05-04 20:34 51.32225 6.82893 1040 ft 156 kts 231°
2026-05-04 20:35 51.31557 6.81512 800 ft 156 kts 231°
2026-05-04 20:35 51.30897 6.80156 581 ft 156 kts 231°
2026-05-04 20:35 51.30229 6.78764 390 ft 158 kts 231°
2026-05-04 20:35 51.29583 6.77408 164 ft 147 kts 231°
2026-05-04 20:36 51.29029 6.76255 128 ft 95 kts 233°
2026-05-04 20:36 51.28840 6.75867 127 ft 31 kts 230°
2026-05-04 20:36 51.28698 6.75708 126 ft 18 kts 201°
2026-05-04 20:36 51.28586 6.75685 126 ft 15 kts 171°
2026-05-04 20:37 51.28489 6.75746 126 ft 15 kts 148°
2026-05-04 20:37 51.28397 6.75852 127 ft 16 kts 143°
2026-05-04 20:37 51.28301 6.75970 128 ft 17 kts 142°
2026-05-04 20:37 51.28211 6.76073 128 ft 7 kts 150°
2026-05-04 20:38 51.28196 6.76086 128 ft 0 kts 152°
2026-05-04 20:38 51.28192 6.76090 128 ft 1 kts 152°
2026-05-04 20:38 51.28180 6.76117 128 ft 5 kts 94°
2026-05-04 20:39 51.28217 6.76208 128 ft 15 kts 51°
2026-05-04 20:39 51.28272 6.76317 128 ft 7 kts 51°
2026-05-04 20:39 51.28303 6.76386 128 ft 7 kts 55°
2026-05-04 20:39 51.28339 6.76464 128 ft 9 kts 53°
2026-05-04 20:40 51.28403 6.76598 128 ft 20 kts 53°
2026-05-04 20:40 51.28440 6.76682 128 ft 0 kts 86°
2026-05-04 20:40 51.28424 6.76700 128 ft 6 kts 162°
2026-05-04 20:40 51.28371 6.76734 128 ft 9 kts 137°
2026-05-04 20:41 51.28352 6.76826 128 ft 6 kts 91°
2026-05-04 20:41 51.28350 6.76896 129 ft 1 kts 112°
2026-05-04 20:41 51.28350 6.76898 129 ft 0 kts 118°
2026-05-04 20:41 51.28341 6.76900 129 ft 3 kts 180°
2026-05-04 20:42 51.28301 6.76866 129 ft 8 kts 204°
2026-05-04 20:42 51.28228 6.76847 129 ft 11 kts 185°
2026-05-04 20:42 51.28146 6.76831 129 ft 12 kts 192°
2026-05-04 20:42 51.28102 6.76809 129 ft 3 kts 220°
2026-05-04 20:43 51.28102 6.76764 129 ft 5 kts 278°
2026-05-04 20:43 51.28106 6.76709 129 ft 0 kts 275°